Regional Weather Roundup
Issued by NWS

Home | Current Version | Previous Version | Text Only | Print | Product List | Glossary On
Versions: 1 2 3 4 5 6 7 8 9 10 11 12 13 14 15 16 17 18 19 20 21 22 23 24 25 26 27 28 29 30 31 32 33 34 35 36 37 38 39 40 41 42 43 44 45 46 47 48 49 50
000
ASUS43 KFSD 232110
RWRSD

WEATHER ROUNDUP FOR SOUTH DAKOTA
NATIONAL WEATHER SERVICE SIOUX FALLS SD
300 PM CST TUE JAN 23 2018

NOTE: "FAIR" INDICATES FEW OR NO CLOUDS BELOW 12,000 FEET WITH NO
SIGNIFICANT WEATHER AND/OR OBSTRUCTIONS TO VISIBILITY.


SDZ001>005-009-010-012>017-232200-
NORTHWEST AND NORTH CENTRAL SOUTH DAKOTA

CITY           SKY/WX    TMP DP  RH WIND       PRES   REMARKS
BUFFALO          N/A     37  22  54 W17       30.06S
FAITH            N/A     40  23  50 NW21G30   30.10R
MOBRIDGE       MOSUNNY   39  26  59 NW17      30.06S
$$

SDZ012>016-024>037-041>051-057-063-072>074-232200-
SOUTHWEST AND SOUTH CENTRAL SOUTH DAKOTA

CITY           SKY/WX    TMP DP  RH WIND       PRES   REMARKS
RAPID CTY ARPT SUNNY     44  16  32 N23G30    30.12S
PIERRE         MOSUNNY   43  25  49 NW18      30.09S
CUSTER         SUNNY     31   9  39 N8G18     30.09R WCI  23
ELLSWORTH AFB  SUNNY     42  17  36 NW21G26   30.12R
PHILIP         SUNNY     44  25  47 NW20G26   30.13R
PINE RIDGE     SUNNY     32  23  69 SW6       30.18S WCI  26
SPEARFISH        N/A     36  18  48 W18       30.13S
WINNER         FAIR      39  30  70 W15       30.11S
$$

SDZ004>011-016>023-039-040-232200-
NORTHEAST SOUTH DAKOTA

CITY           SKY/WX    TMP DP  RH WIND       PRES   REMARKS
ABERDEEN       PTSUNNY   32  22  66 SW3       30.09S
WATERTOWN      CLOUDY    22  21  96 W10       30.06R FOG     WCI  11
BROOKINGS      CLOUDY    22  20  92 W10       30.08S WCI  11
SISSETON         N/A     24  20  84 W7        30.09R WCI  16
$$

SDZ017-020-022-023-036>040-048>070-232200-
SOUTHEAST SOUTH DAKOTA

CITY           SKY/WX    TMP DP  RH WIND       PRES   REMARKS
SIOUX FALLS    CLOUDY    24  22  91 W5        30.11S WCI  18
HURON          PTSUNNY   25  22  88 CALM      30.11R
CHAMBERLAIN    CLOUDY    36  32  87 W6        30.10S
MITCHELL       PTSUNNY   29  24  82 W5        30.12R WCI  24
YANKTON        CLOUDY    29  23  78 SW3       30.13F
$$

ABBREVIATIONS USED IN REMARKS
   TC - TEMPERATURE IN CELSIUS
  WCI - WIND CHILL INDEX
   HX - HEAT INDEX
  VSB - VISIBILITY





USA.gov is the U.S. government's official web portal to all federal, state and local government web resources and services.